{"data":{"norad_id":53978,"intl_designator":"2022-125Q","name":"STARLINK-5148","alt_names":[],"object_type":"PAYLOAD","status":"ACTIVE","operator":null,"country":"US","launch_date":"2022-10-05","launch_site_code":"AFWTR","launch_vehicle":null,"mission":null,"orbit_class":"UNKNOWN","rcs_meters":null,"size_class":null,"mass_kg":null,"dimensions":null,"purposes":["comms"],"wikipedia_slug":null,"has_3d_model":false,"image_url":null,"decayed_at":null,"tle_current":{"epoch":"2026-09-20T22:00:03.000096Z","epoch_age_seconds":50701,"freshness":"FRESH","line1":"1 53978U 22125Q   26263.91670139  .00116044  00000+0  40027-2 0  9999","line2":"2 53978  53.1605  59.8968 0001263  55.2277  24.0306 15.29099779  5805","mean_motion":15.29099779,"eccentricity":0.0001263,"inclination_deg":53.1605,"raan_deg":59.8968,"arg_perigee_deg":55.2277,"mean_anomaly_deg":24.0306,"bstar":0.0040027,"rev_number":580,"period_min":94.173056577232,"perigee_km":477.63610706186,"apogee_km":479.36809409866,"semimajor_km":6856.6391005803,"source":"CELESTRAK","updated_at":"2026-09-21T09:00:33.041761Z"}}}